TimeEST,TemperatureF,Dew PointF,Humidity,Sea Level PressureIn,VisibilityMPH,Wind Direction,Wind SpeedMPH,Gust SpeedMPH,PrecipitationIn,Events,Conditions,WindDirDegrees,DateUTC
12:54 AM,12.9,-0.9,54,30.31,10.0,WNW,12.7,-,N/A,,Mostly Cloudy,290,2013-01-18 05:54:00
1:54 AM,12.9,1.0,59,30.32,10.0,WNW,9.2,-,N/A,,Mostly Cloudy,290,2013-01-18 06:54:00
2:54 AM,12.9,5.0,71,30.34,10.0,West,5.8,-,0.00,,Mostly Cloudy,260,2013-01-18 07:54:00
3:54 AM,14.0,3.9,64,30.34,9.0,West,5.8,-,0.00,Snow,Light Snow,270,2013-01-18 08:54:00
4:54 AM,14.0,1.0,56,30.32,10.0,WSW,10.4,-,0.00,,Overcast,240,2013-01-18 09:54:00
5:54 AM,14.0,1.9,59,30.33,10.0,WNW,6.9,-,N/A,,Overcast,290,2013-01-18 10:54:00
6:54 AM,14.0,3.0,62,30.32,10.0,Calm,Calm,-,N/A,,Overcast,0,2013-01-18 11:54:00
7:54 AM,14.0,3.9,64,30.31,10.0,SE,5.8,-,N/A,,Overcast,140,2013-01-18 12:54:00
8:54 AM,14.0,5.0,67,30.30,10.0,SSE,5.8,-,N/A,,Overcast,160,2013-01-18 13:54:00
9:49 AM,15.8,8.6,73,30.25,2.5,South,8.1,-,0.00,Snow,Light Snow,190,2013-01-18 14:49:00
9:54 AM,15.1,8.1,74,30.30,3.0,South,8.1,-,0.00,Snow,Light Snow,190,2013-01-18 14:54:00
10:16 AM,15.8,8.6,73,30.25,1.8,South,9.2,-,0.00,Snow,Light Snow,180,2013-01-18 15:16:00
10:28 AM,15.8,8.6,73,30.24,2.0,South,6.9,-,0.00,Snow,Light Snow,180,2013-01-18 15:28:00
10:41 AM,15.8,8.6,73,30.23,3.0,South,12.7,19.6,0.00,Snow,Light Snow,190,2013-01-18 15:41:00
10:49 AM,15.8,8.6,73,30.23,2.5,South,11.5,19.6,0.00,Snow,Light Snow,190,2013-01-18 15:49:00
10:54 AM,16.0,7.0,68,30.27,2.5,South,11.5,-,0.00,Snow,Light Snow,190,2013-01-18 15:54:00
11:10 AM,15.8,6.8,68,30.20,2.0,South,10.4,19.6,0.00,Snow,Light Snow,180,2013-01-18 16:10:00
11:44 AM,15.8,8.6,73,30.17,1.5,South,10.4,18.4,0.00,Snow,Light Snow,170,2013-01-18 16:44:00
11:54 AM,16.0,10.0,77,30.21,0.8,South,9.2,-,0.00,Snow,Light Snow,170,2013-01-18 16:54:00
12:29 PM,15.8,10.4,79,30.12,0.8,SSE,8.1,-,0.00,Snow,Light Snow,160,2013-01-18 17:29:00
12:54 PM,15.1,10.9,84,30.14,0.5,SSE,9.2,-,0.00,Fog-Snow,Snow,160,2013-01-18 17:54:00
1:03 PM,15.8,10.4,79,30.08,0.5,SSE,6.9,-,0.00,Snow,Snow,160,2013-01-18 18:03:00
1:24 PM,15.8,10.4,79,30.05,0.5,SE,9.2,-,0.01,Snow,Snow,130,2013-01-18 18:24:00
1:54 PM,16.0,10.9,81,30.09,0.5,ESE,6.9,-,0.01,Snow,Snow,120,2013-01-18 18:54:00
2:10 PM,15.8,10.4,79,30.03,1.0,ESE,8.1,-,0.00,Snow,Light Snow,110,2013-01-18 19:10:00
2:17 PM,15.8,10.4,79,30.02,0.8,ESE,8.1,-,0.01,Snow,Light Snow,110,2013-01-18 19:17:00
2:54 PM,16.0,12.0,84,30.03,1.2,SE,12.7,-,0.01,Snow,Light Snow,130,2013-01-18 19:54:00
3:03 PM,17.6,12.2,79,29.98,1.2,SE,11.5,-,0.00,Snow,Light Snow,130,2013-01-18 20:03:00
3:47 PM,17.6,12.2,79,29.94,2.5,SE,10.4,-,0.00,Snow,Light Snow,130,2013-01-18 20:47:00
3:54 PM,17.1,12.0,81,29.99,3.0,SE,10.4,-,0.00,Snow,Light Snow,130,2013-01-18 20:54:00
4:54 PM,18.0,12.9,81,29.93,5.0,SE,10.4,-,0.00,,Haze,140,2013-01-18 21:54:00
5:20 PM,17.6,14.0,86,29.86,2.5,SE,8.1,-,0.00,Snow,Light Snow,130,2013-01-18 22:20:00
5:31 PM,19.4,14.0,80,29.86,4.0,SE,5.8,-,0.00,,Haze,140,2013-01-18 22:31:00
5:54 PM,19.0,14.0,81,29.89,8.0,SE,6.9,-,0.00,,Overcast,140,2013-01-18 22:54:00
6:54 PM,19.9,15.1,81,29.86,10.0,SE,4.6,-,N/A,,Overcast,140,2013-01-18 23:54:00
7:54 PM,21.0,16.0,81,29.82,10.0,SE,4.6,-,N/A,,Overcast,130,2013-01-19 00:54:00
8:54 PM,23.0,18.0,81,29.79,10.0,NNW,4.6,-,N/A,,Overcast,330,2013-01-19 01:54:00
9:54 PM,30.9,28.0,89,29.77,3.0,WNW,6.9,-,0.01,Snow,Light Snow,290,2013-01-19 02:54:00
10:00 PM,30.2,28.4,93,29.73,2.5,West,6.9,-,0.00,Snow,Light Snow,280,2013-01-19 03:00:00
10:14 PM,32.0,28.4,87,29.72,4.0,WNW,6.9,-,0.00,Snow,Light Snow,290,2013-01-19 03:14:00
10:30 PM,30.2,28.4,93,29.72,8.0,WNW,9.2,-,0.00,,Overcast,300,2013-01-19 03:30:00
10:54 PM,30.0,27.0,88,29.75,7.0,NNW,8.1,-,0.01,Snow,Light Snow,330,2013-01-19 03:54:00
11:54 PM,27.0,23.0,85,29.75,10.0,NNE,5.8,-,0.00,,Overcast,30,2013-01-19 04:54:00